Location: Smoky Mountain Stargaze
(35.4252°N, 83.3329°W)
Time: 22:13:59
(UTC-04:00)

Amateur Radio Satellites - All Passes

Search period start: 07 July 2015 21:43
Search period end: 08 July 2015 21:43
Location: Smoky Mountain Stargaze, 35.4252°N, 83.3329°W

Satellite Date Start Highest point End Downlink Frequencies (MHz)
Time Altitude Azimuth
DOVE 4 07 Jul 21:50:18 21:55:00 49° 261° (W) 21:59:27 437.250
COMPASS 1 07 Jul 22:03:16 22:07:21 59° 260° (W) 22:11:28 437.405
CINEMA 3 07 Jul 22:09:17 22:13:45 67° 259° (W) 22:18:03 145.822/145.860
BRITE-PL 07 Jul 22:09:22 22:12:17 14° 269° (W) 22:14:50 437.365/2234.400
HUMSAT D 07 Jul 22:10:39 22:12:10 12° 68° (ENE) 22:13:54 437.325/437.525
ZACube-1 07 Jul 22:19:33 22:23:27 39° 74° (ENE) 22:27:21 437.345
Oscar 11 07 Jul 22:19:38 22:23:54 75° 77° (ENE) 22:28:13 145.826/435.025
UKube-1 07 Jul 22:19:56 22:21:53 13° 67° (ENE) 22:24:03 .
AUBIESAT-1 07 Jul 22:23:47 22:28:11 66° 106° (ESE) 22:32:48 437.475
CUTE 1.7 + AOD 2 07 Jul 22:26:30 22:29:41 20° 267° (W) 22:32:45 437.475
CANX-2 07 Jul 22:31:00 22:33:43 16° 268° (W) 22:36:17 2200.000
CUBEBUG 2 07 Jul 22:33:05 22:37:23 78° 259° (W) 22:41:34 437.445
50 SAT 07 Jul 22:44:05 22:45:57 14° 69° (ENE) 22:47:59 437.505
FUNcube-1 07 Jul 22:53:43 22:57:54 78° 258° (WSW) 23:02:04 145.935
Cosmos 2499 07 Jul 22:54:19 23:02:24 84° 263° (W) 23:11:03 435.465 / 435.565
AISAT 07 Jul 22:56:09 22:59:26 21° 69° (ENE) 23:02:50 437.250
DELFI C3 07 Jul 22:59:25 23:03:18 50° 261° (W) 23:07:13 145.870
M-CUBED/EXP-1 PRIME 07 Jul 23:01:55 23:06:02 40° 291° (WNW) 23:10:21 437.505
CUBEBUG 1 07 Jul 23:03:40 23:05:33 13° 67° (ENE) 23:07:40 437.445
ANTELSAT 07 Jul 23:06:26 23:09:01 16° 92° (E) 23:11:51 437.575/2403.000
AAUSAT CUBESAT 2 07 Jul 23:12:44 23:13:57 11° 270° (W) 23:14:53 437.432
TIGRISAT 07 Jul 23:16:36 23:19:48 20° 94° (E) 23:23:09 435.000
UWE-3 07 Jul 23:16:59 23:20:43 29° 263° (W) 23:24:21 435.000/436.395/437.385
GONETS M04 07 Jul 23:27:23 23:28:43 10° 281° (WNW) 23:29:10
DX 1 07 Jul 23:38:06 23:42:28 68° 259° (W) 23:46:50 434.975-435.025
PCSat 07 Jul 23:39:39 23:41:19 12° 44° (NE) 23:43:17 145.827
ESTCUBE 1 07 Jul 23:40:41 23:44:55 41° 73° (ENE) 23:49:13 437.505/2401.250
VELOX 1 07 Jul 23:42:53 23:47:20 70° 75° (ENE) 23:51:46 145.980
HUMSAT D 07 Jul 23:43:37 23:47:34 45° 261° (W) 23:51:30 437.325/437.525
SPROUT 07 Jul 23:51:44 23:53:08 12° 67° (ENE) 23:54:47 437.525
UKube-1 07 Jul 23:53:26 23:57:38 48° 260° (W) 00:01:51 .
UNISAT 6 07 Jul 23:57:00 00:01:24 61° 101° (E) 00:05:54 437.425
ZACube-1 07 Jul 23:57:53 00:00:02 13° 269° (W) 00:01:58 437.345
QB50P1 07 Jul 23:58:50 00:02:08 23° 95° (E) 00:05:32 145.935-145.965
AUBIESAT-1 08 Jul 00:00:47 00:02:32 12° 297° (WNW) 00:04:03 437.475
NANOSAT C BR1 08 Jul 00:11:11 00:14:56 31° 97° (E) 00:18:43 145.865
DUCHIFAT 1 08 Jul 00:16:42 00:20:33 36° 98° (E) 00:24:26 145.980
50 SAT 08 Jul 00:16:47 00:20:17 34° 262° (W) 00:23:47 437.505
BUGSAT 1 08 Jul 00:17:24 00:20:32 22° 95° (E) 00:23:44 437.445
TISAT 1 08 Jul 00:17:24 00:19:44 15° 68° (ENE) 00:22:14 437.305
POLYITAN 1 08 Jul 00:26:30 00:30:37 51° 99° (E) 00:34:44 437.675
AISAT 08 Jul 00:31:52 00:35:51 30° 264° (W) 00:39:46 437.250
CUBEBUG 1 08 Jul 00:37:12 00:41:31 51° 260° (W) 00:45:51 437.445
ANTELSAT 08 Jul 00:41:50 00:46:00 40° 286° (WNW) 00:50:13 437.575/2403.000
Cosmos 2499 08 Jul 00:51:00 00:54:44 13° 278° (W) 00:57:53 435.465 / 435.565
TIGRISAT 08 Jul 00:52:39 00:56:36 32° 288° (WNW) 01:00:33 435.000
POPSAT HIP 1 08 Jul 00:55:16 00:59:27 71° 284° (WNW) 01:03:38 437.405
QB50P2 08 Jul 00:55:33 00:59:45 68° 284° (WNW) 01:03:55 145.880/145.840
RS-15 08 Jul 00:58:19 01:06:10 25° 104° (ESE) 01:14:41 29.354- 29.394
SWISSCUBE 08 Jul 01:09:15 01:10:22 11° 65° (ENE) 01:11:46 437.505
SO-50 08 Jul 01:11:36 01:15:55 29° 52° (NE) 01:20:12 436.795
ITUPSAT 1 08 Jul 01:16:00 01:17:32 12° 65° (ENE) 01:19:22 437.325
ESTCUBE 1 08 Jul 01:19:10 01:22:01 16° 268° (W) 01:24:40 437.505/2401.250
PCSat 08 Jul 01:20:16 01:25:44 81° 65° (ENE) 01:31:08 145.827
SPROUT 08 Jul 01:24:36 01:28:49 53° 260° (W) 01:33:01 437.525
Cosmos 2491 08 Jul 01:25:44 01:30:31 16° 63° (ENE) 01:35:50 435.465 / 435.565
QB50P1 08 Jul 01:34:31 01:37:57 24° 289° (WNW) 01:41:18 145.935-145.965
UNISAT 6 08 Jul 01:36:22 01:37:46 11° 293° (WNW) 01:38:55 437.425
NANOSAT C BR1 08 Jul 01:47:39 01:50:33 18° 291° (WNW) 01:53:19 145.865
TISAT 1 08 Jul 01:51:13 01:55:13 39° 262° (W) 01:59:11 437.305
BUGSAT 1 08 Jul 01:52:44 01:55:57 22° 289° (WNW) 01:59:03 437.445
DUCHIFAT 1 08 Jul 01:53:29 01:56:06 16° 291° (WNW) 01:58:33 145.980
Oscar 19 08 Jul 02:00:16 02:03:39 18° 92° (E) 02:07:14 437.125/150
POLYITAN 1 08 Jul 02:04:32 02:06:08 12° 293° (WNW) 02:07:29 437.675
AIST 1 08 Jul 02:19:53 02:22:12 15° 72° (ENE) 02:24:42
BEESAT 08 Jul 02:26:43 02:31:27 70° 75° (ENE) 02:36:14 436.000
Gurwin Techsat 1B 08 Jul 02:38:23 02:39:49 11° 89° (E) 02:41:38 435.225
KKS-1 08 Jul 02:40:49 02:43:10 15° 68° (ENE) 02:45:43 437.445
SWISSCUBE 08 Jul 02:42:55 02:47:41 72° 259° (W) 02:52:29 437.505
ITUPSAT 1 08 Jul 02:50:10 02:54:55 67° 259° (W) 02:59:44 437.325
SO-50 08 Jul 02:52:07 02:56:26 30° 248° (WSW) 03:00:35 436.795
RS-15 08 Jul 03:06:41 03:17:34 75° 302° (WNW) 03:28:48 29.354- 29.394
PCSat 08 Jul 03:07:16 03:08:33 11° 256° (WSW) 03:09:25 145.827
Cosmos 2491 08 Jul 03:20:00 03:28:47 88° 264° (W) 03:37:30 435.465 / 435.565
STARS 08 Jul 03:21:50 03:25:21 25° 71° (ENE) 03:28:59 437.465
JAS-2 08 Jul 03:32:29 03:36:31 16° 90° (E) 03:41:12 435.910
Oscar 19 08 Jul 03:38:23 03:43:16 44° 288° (WNW) 03:48:07 437.125/150
YUBILEINY 08 Jul 03:47:56 03:56:32 71° 94° (E) 04:05:11 435.215
AO-7 08 Jul 03:48:35 03:49:51 11° 86° (E) 03:52:00 29.400- 29.500
AIST 1 08 Jul 03:56:04 04:00:06 37° 268° (W) 04:04:02
ITAMSAT 1 08 Jul 03:58:20 04:03:33 74° 102° (ESE) 04:08:44 435.822/435.867
Gurwin Techsat 1B 08 Jul 04:15:07 04:20:25 73° 286° (WNW) 04:25:43 435.225
KKS-1 08 Jul 04:15:12 04:19:28 45° 261° (W) 04:23:44 437.445
STARS 08 Jul 04:58:06 05:01:45 25° 265° (W) 05:05:19 437.465
MOZHAYETS 4 08 Jul 05:00:51 05:05:14 49° 74° (ENE) 05:09:42
HORYU 2 08 Jul 05:10:54 05:15:18 57° 100° (E) 05:19:43 437.375
JAS-2 08 Jul 05:15:10 05:22:08 81° 284° (WNW) 05:29:48 435.910
Cosmos 2491 08 Jul 05:20:08 05:24:35 14° 280° (W) 05:28:22 435.465 / 435.565
RS-15 08 Jul 05:24:12 05:32:27 22° 329° (NNW) 05:40:35 29.354- 29.394
AO-7 08 Jul 05:35:49 05:44:12 74° 105° (ESE) 05:52:32 29.400- 29.500
ITAMSAT 1 08 Jul 05:40:17 05:42:30 12° 296° (WNW) 05:44:25 435.822/435.867
CUBESAT XI-V 08 Jul 05:42:34 05:43:18 10° 66° (ENE) 05:44:21 437.345
YUBILEINY 08 Jul 05:47:46 05:54:17 22° 293° (WNW) 06:00:24 435.215
VERMONT LUNAR 08 Jul 05:52:20 05:55:08 32° 150° (SSE) 05:57:58 437.305
Cosmos 2504 08 Jul 06:10:56 06:17:46 64° 93° (E) 06:24:37 435.465 / 435.565
STRAND 1 08 Jul 06:35:00 06:37:46 15° 66° (ENE) 06:40:46 437.568
MOZHAYETS 4 08 Jul 06:40:31 06:42:49 13° 270° (W) 06:44:51
BEESAT 3 08 Jul 06:43:44 06:47:42 57° 116° (ESE) 06:51:44 437.485
O/OREOS (USA 219) 08 Jul 06:44:25 06:48:02 26° 103° (ESE) 06:51:46 437.305
HORYU 2 08 Jul 06:49:39 06:51:30 12° 294° (WNW) 06:53:07 437.375
BEESAT 2 08 Jul 07:01:41 07:05:45 71° 118° (ESE) 07:09:52 435.950
JAS-2 08 Jul 07:03:08 07:06:33 14° 297° (WNW) 07:09:37 435.910
CUTE-I 08 Jul 07:03:45 07:08:05 25° 95° (E) 07:12:30 437.470
DANDE 08 Jul 07:07:18 07:10:09 14° 93° (E) 07:13:08 436.750
PHONESAT 2.4 08 Jul 07:08:28 07:11:16 24° 147° (SSE) 07:14:07 2401.200-2431.200
AIST 2 08 Jul 07:10:33 07:13:30 19° 111° (ESE) 07:16:37 435.215
CUBESAT XI-V 08 Jul 07:15:31 07:20:12 72° 259° (W) 07:24:57 437.345
CUSAT 1 08 Jul 07:15:52 07:20:14 21° 96° (E) 07:24:05 437.405
PRISM 08 Jul 07:20:17 07:24:04 35° 72° (ENE) 07:27:55 437.425
ISS 08 Jul 07:24:30 07:27:43 65° 319° (NW) 07:30:57 145.825
VERMONT LUNAR 08 Jul 07:28:56 07:31:57 49° 344° (NNW) 07:34:59 437.305
AO-7 08 Jul 07:30:01 07:36:19 23° 301° (WNW) 07:42:17 29.400- 29.500
Cubesat XI-IV 08 Jul 07:38:32 07:43:49 57° 100° (E) 07:49:04 437.490
RS-15 08 Jul 07:46:36 07:51:10 13° 5° (N) 07:55:57 29.354- 29.394
Cosmos 2504 08 Jul 08:06:05 08:10:40 18° 292° (WNW) 08:14:56 435.465 / 435.565
STRAND 1 08 Jul 08:11:28 08:16:32 58° 259° (W) 08:21:37 437.568
O/OREOS (USA 219) 08 Jul 08:23:44 08:27:26 24° 299° (WNW) 08:31:03 437.305
BEESAT 3 08 Jul 08:24:02 08:26:04 13° 314° (NW) 08:27:55 437.485
GONETS M04 08 Jul 08:26:50 08:33:34 27° 85° (E) 08:40:36
BRITE-PL 08 Jul 08:37:25 08:40:24 19° 93° (E) 08:43:29 437.365/2234.400
BEESAT 2 08 Jul 08:43:01 08:44:21 11° 315° (NW) 08:45:29 435.950
CUTE-I 08 Jul 08:43:23 08:48:13 34° 290° (WNW) 08:52:58 437.470
PHONESAT 2.4 08 Jul 08:45:41 08:49:06 68° 340° (NNW) 08:52:32 2401.200-2431.200
DANDE 08 Jul 08:46:11 08:53:20 76° 279° (W) 08:58:43 436.750
AIST 2 08 Jul 08:47:59 08:51:52 34° 305° (NW) 08:55:46 435.215
CUSAT 1 08 Jul 08:56:57 09:02:49 40° 280° (W) 09:07:18 437.405
PRISM 08 Jul 08:57:02 08:59:40 16° 268° (W) 09:02:07 437.425
ISS 08 Jul 09:03:51 09:04:40 11° 337° (NNW) 09:05:25 145.825
VERMONT LUNAR 08 Jul 09:06:24 09:09:12 30° 1° (N) 09:12:00 437.305
AUBIESAT-1 08 Jul 09:09:38 09:12:47 42° 70° (ENE) 09:16:06 437.475
HO-68 08 Jul 09:14:40 09:20:25 27° 94° (E) 09:26:23 435.675
Cubesat XI-IV 08 Jul 09:20:08 09:23:30 16° 295° (WNW) 09:26:37 437.490
SEEDS 08 Jul 09:20:37 09:23:02 15° 92° (E) 09:25:38 437.485
GOMX 1 08 Jul 09:28:44 09:32:43 46° 99° (E) 09:36:45 467.674
Cosmos 2499 08 Jul 09:41:58 09:42:42 10° 81° (E) 09:44:05 435.465 / 435.565
M-CUBED/EXP-1 PRIME 08 Jul 09:48:10 09:51:16 38° 257° (WSW) 09:54:31 437.505
COMPASS 1 08 Jul 09:49:59 09:53:33 26° 95° (E) 09:57:10 437.405
DOVE 4 08 Jul 09:52:15 09:56:18 52° 99° (E) 10:00:26 437.250
RS-15 08 Jul 09:59:41 10:09:17 30° 39° (NE) 10:19:33 29.354- 29.394
CINEMA 3 08 Jul 10:07:07 10:10:55 32° 97° (E) 10:14:52 145.822/145.860
Oscar 11 08 Jul 10:11:06 10:13:53 17° 92° (E) 10:16:50 145.826/435.025
CUTE 1.7 + AOD 2 08 Jul 10:13:18 10:17:37 85° 102° (ESE) 10:21:55 437.475
TIGRISAT 08 Jul 10:14:27 10:15:55 12° 67° (ENE) 10:17:37 435.000
BRITE-PL 08 Jul 10:15:29 10:19:01 26° 289° (WNW) 10:22:25 437.365/2234.400
CANX-2 08 Jul 10:17:21 10:21:39 76° 284° (WNW) 10:25:57 2200.000
GONETS M04 08 Jul 10:21:18 10:29:56 57° 281° (WNW) 10:38:30
PHONESAT 2.4 08 Jul 10:24:15 10:27:25 33° 358° (N) 10:30:35 2401.200-2431.200
CUBEBUG 2 08 Jul 10:27:19 10:30:51 26° 95° (E) 10:34:33 437.445
DELFI C3 08 Jul 10:41:46 10:45:09 25° 95° (E) 10:48:36 145.870
VERMONT LUNAR 08 Jul 10:43:20 10:46:24 57° 18° (NNE) 10:49:29 437.305
FUNcube-1 08 Jul 10:45:20 10:48:46 24° 95° (E) 10:52:21 145.935
QB50P1 08 Jul 10:50:15 10:51:58 13° 68° (ENE) 10:53:55 145.935-145.965
UNISAT 6 08 Jul 10:53:24 10:57:18 35° 73° (ENE) 11:01:12 437.425
SEEDS 08 Jul 10:55:03 10:59:00 37° 286° (WNW) 11:02:55 437.485
AAUSAT CUBESAT 2 08 Jul 10:55:10 10:59:19 56° 285° (WNW) 11:03:26 437.432
HO-68 08 Jul 11:01:34 11:08:27 51° 291° (WNW) 11:15:16 435.675
NANOSAT C BR1 08 Jul 11:01:43 11:04:24 17° 69° (ENE) 11:07:12 145.865
BUGSAT 1 08 Jul 11:06:14 11:07:41 12° 68° (ENE) 11:09:22 437.445
DUCHIFAT 1 08 Jul 11:06:51 11:09:47 19° 70° (ENE) 11:12:49 145.980
UWE-3 08 Jul 11:08:51 11:13:06 64° 101° (E) 11:17:27 435.000/436.395/437.385
GOMX 1 08 Jul 11:08:56 11:10:32 12° 292° (WNW) 11:11:55 467.674
POLYITAN 1 08 Jul 11:16:54 11:20:24 26° 72° (ENE) 11:23:59 437.675
COMPASS 1 08 Jul 11:25:49 11:29:06 21° 289° (WNW) 11:32:16 437.405
Cosmos 2499 08 Jul 11:27:49 11:34:52 87° 97° (E) 11:42:04 435.465 / 435.565
DX 1 08 Jul 11:30:01 11:33:34 25° 96° (E) 11:37:12 434.975-435.025
HUMSAT D 08 Jul 11:30:27 11:34:15 33° 97° (E) 11:38:07 437.325/437.525
DOVE 4 08 Jul 11:32:40 11:33:44 11° 292° (WNW) 11:34:32 437.250
ANTELSAT 08 Jul 11:37:37 11:41:52 65° 259° (WSW) 11:46:07 437.575/2403.000
VELOX 1 08 Jul 11:37:42 11:40:24 16° 92° (E) 11:43:17 145.980
ESTCUBE 1 08 Jul 11:39:06 11:40:00 11° 89° (E) 11:41:14 437.505/2401.250
UKube-1 08 Jul 11:44:02 11:47:56 33° 97° (E) 11:51:51 .
POPSAT HIP 1 08 Jul 11:44:46 11:48:54 56° 75° (ENE) 11:53:03 437.405
CINEMA 3 08 Jul 11:45:05 11:47:57 17° 290° (WNW) 11:50:43 145.822/145.860
QB50P2 08 Jul 11:45:10 11:49:19 59° 75° (ENE) 11:53:30 145.880/145.840
Oscar 11 08 Jul 11:46:14 11:50:12 34° 287° (WNW) 11:54:07 145.826/435.025
ZACube-1 08 Jul 11:46:43 11:50:56 59° 284° (WNW) 11:55:13 437.345
TIGRISAT 08 Jul 11:48:08 11:52:18 50° 261° (W) 11:56:26 435.000
50 SAT 08 Jul 11:55:11 11:58:39 30° 97° (E) 12:02:10 437.505
PHONESAT 2.4 08 Jul 12:02:27 12:05:48 49° 14° (NNE) 12:09:10 2401.200-2431.200
CUBEBUG 2 08 Jul 12:04:05 12:07:29 23° 288° (WNW) 12:10:50 437.445
RS-15 08 Jul 12:11:32 12:23:24 86° 241° (WSW) 12:35:40 29.354- 29.394
DELFI C3 08 Jul 12:17:02 12:20:07 20° 289° (WNW) 12:23:05 145.870
VERMONT LUNAR 08 Jul 12:20:29 12:23:09 26° 212° (SSW) 12:25:50 437.305
FUNcube-1 08 Jul 12:21:33 12:25:03 24° 288° (WNW) 12:28:31 145.935
QB50P1 08 Jul 12:23:23 12:27:28 47° 261° (W) 12:31:34 145.935-145.965
AISAT 08 Jul 12:24:57 12:29:19 63° 101° (E) 12:33:40 437.250
CUBEBUG 1 08 Jul 12:29:16 12:33:14 35° 97° (E) 12:37:12 437.445
UNISAT 6 08 Jul 12:31:33 12:34:15 16° 268° (W) 12:36:44 437.425
NANOSAT C BR1 08 Jul 12:36:07 12:39:59 34° 263° (W) 12:43:49 145.865
BUGSAT 1 08 Jul 12:38:40 12:42:47 50° 260° (W) 12:46:52 437.445
DUCHIFAT 1 08 Jul 12:41:39 12:45:24 30° 263° (W) 12:49:06 145.980
POLYITAN 1 08 Jul 12:52:59 12:56:18 21° 266° (W) 12:59:29 437.675
DX 1 08 Jul 13:06:14 13:09:45 24° 290° (WNW) 13:13:08 434.975-435.025
HUMSAT D 08 Jul 13:06:58 13:09:47 17° 290° (WNW) 13:12:27 437.325/437.525
ESTCUBE 1 08 Jul 13:12:52 13:17:20 58° 285° (WNW) 13:21:44 437.505/2401.250
VELOX 1 08 Jul 13:13:04 13:17:07 36° 288° (WNW) 13:21:08 145.980
Oscar 19 08 Jul 13:14:24 13:18:01 20° 68° (ENE) 13:21:48 437.125/150
SPROUT 08 Jul 13:14:29 13:18:17 31° 97° (E) 13:22:07 437.525
UKube-1 08 Jul 13:20:50 13:23:50 18° 291° (WNW) 13:26:42 .
Cosmos 2499 08 Jul 13:26:08 13:29:15 13° 297° (WNW) 13:31:54 435.465 / 435.565
50 SAT 08 Jul 13:30:30 13:33:03 16° 290° (WNW) 13:35:28 437.505
TISAT 1 08 Jul 13:38:34 13:42:27 37° 98° (E) 13:46:21 437.305
PHONESAT 2.4 08 Jul 13:40:32 13:43:47 40° 210° (SSW) 13:47:02 2401.200-2431.200
ISS 08 Jul 13:54:32 13:57:30 33° 36° (NE) 14:00:29 145.825
Gurwin Techsat 1B 08 Jul 13:56:05 13:58:52 15° 65° (ENE) 14:01:55 435.225
YUBILEINY 08 Jul 14:02:32 14:09:48 30° 71° (ENE) 14:17:20 435.215
AISAT 08 Jul 14:04:27 14:05:25 10° 294° (WNW) 14:06:08 437.250
CUBEBUG 1 08 Jul 14:06:25 14:09:21 17° 291° (WNW) 14:12:06 437.445
PCSat 08 Jul 14:18:04 14:21:05 16° 106° (ESE) 14:24:22 145.827
Cosmos 2491 08 Jul 14:23:33 14:29:24 21° 83° (E) 14:35:42 435.465 / 435.565
RS-15 08 Jul 14:26:56 14:34:41 19° 258° (WSW) 14:41:37 29.354- 29.394
BEESAT 08 Jul 14:30:46 14:34:28 23° 94° (E) 14:38:17 436.000
AO-7 08 Jul 14:43:45 14:47:41 15° 54° (NE) 14:52:07 29.400- 29.500
SWISSCUBE 08 Jul 14:46:32 14:50:57 37° 97° (E) 14:55:24 437.505
SPROUT 08 Jul 14:51:09 14:54:11 19° 290° (WNW) 14:57:03 437.525
Oscar 19 08 Jul 14:52:16 14:57:07 41° 262° (W) 15:01:57 437.125/150
ITUPSAT 1 08 Jul 14:54:00 14:58:30 40° 98° (E) 15:03:01 437.325
BEESAT 3 08 Jul 15:06:14 15:08:32 15° 48° (NE) 15:10:56 437.485
ITAMSAT 1 08 Jul 15:13:08 15:18:21 82° 76° (ENE) 15:23:37 435.822/435.867
TISAT 1 08 Jul 15:15:27 15:17:56 15° 291° (WNW) 15:20:15 437.305
SO-50 08 Jul 15:24:13 15:27:13 18° 110° (ESE) 15:30:28 436.795
BEESAT 2 08 Jul 15:24:28 15:27:16 18° 49° (NE) 15:30:07 435.950
JAS-2 08 Jul 15:26:20 15:30:35 27° 68° (ENE) 15:35:09 435.910
ISS 08 Jul 15:31:23 15:33:44 18° 230° (SW) 15:36:02 145.825
Gurwin Techsat 1B 08 Jul 15:33:08 15:38:23 62° 259° (W) 15:43:40 435.225
YUBILEINY 08 Jul 15:58:37 16:07:04 54° 269° (W) 16:15:29 435.215
PCSat 08 Jul 15:58:44 16:04:04 58° 299° (WNW) 16:09:26 145.827
JUGNU 08 Jul 15:59:39 16:03:09 16° 174° (S) 16:06:42 437.505
Cosmos 2504 08 Jul 16:01:17 16:05:40 17° 67° (ENE) 16:10:41 435.465 / 435.565
HORYU 2 08 Jul 16:06:19 16:10:18 35° 72° (ENE) 16:14:21 437.375
BEESAT 08 Jul 16:08:06 16:12:22 32° 289° (WNW) 16:16:33 436.000
KKS-1 08 Jul 16:09:12 16:13:24 42° 99° (E) 16:17:37 437.445
Cosmos 2491 08 Jul 16:16:44 16:25:33 71° 279° (W) 16:34:20 435.465 / 435.565
AIST 1 08 Jul 16:21:41 16:26:00 56° 279° (W) 16:30:21
SWISSCUBE 08 Jul 16:25:03 16:28:35 20° 292° (WNW) 16:31:59 437.505
AO-7 08 Jul 16:31:00 16:39:18 75° 71° (ENE) 16:47:41 29.400- 29.500
ITUPSAT 1 08 Jul 16:32:42 16:36:08 19° 292° (WNW) 16:39:23 437.325
BEESAT 3 08 Jul 16:42:53 16:46:46 45° 244° (WSW) 16:50:33 437.485
STARS 08 Jul 16:49:48 16:54:11 75° 102° (ESE) 16:58:33 437.465
O/OREOS (USA 219) 08 Jul 16:56:46 17:00:47 31° 63° (ENE) 17:04:51 437.305
MOZHAYETS 4 08 Jul 17:00:22 17:02:58 15° 91° (E) 17:05:46
SRMSAT 08 Jul 17:00:57 17:03:50 14° 170° (S) 17:06:46 437.500
BEESAT 2 08 Jul 17:01:43 17:05:28 36° 246° (WSW) 17:09:07 435.950
SO-50 08 Jul 17:02:53 17:07:25 45° 305° (NW) 17:12:05 436.795
JAS-2 08 Jul 17:11:11 17:15:42 29° 265° (W) 17:20:20 435.910
AIST 2 08 Jul 17:12:06 17:16:15 60° 58° (ENE) 17:20:19 435.215
HORYU 2 08 Jul 17:44:05 17:47:05 17° 267° (W) 17:49:56 437.375
KKS-1 08 Jul 17:47:03 17:49:44 15° 292° (WNW) 17:52:14 437.445
JUGNU 08 Jul 17:47:43 17:51:28 17° 184° (S) 17:55:12 437.505
Cosmos 2504 08 Jul 17:51:02 17:58:47 83° 265° (W) 18:07:04 435.465 / 435.565
Cosmos 2491 08 Jul 18:21:33 18:24:25 11° 301° (WNW) 18:26:28 435.465 / 435.565
CUTE-I 08 Jul 18:22:32 18:27:12 32° 70° (ENE) 18:31:57 437.470
AO-7 08 Jul 18:27:00 18:32:57 20° 268° (W) 18:38:28 29.400- 29.500
MOZHAYETS 4 08 Jul 18:36:00 18:40:27 44° 286° (WNW) 18:44:51
O/OREOS (USA 219) 08 Jul 18:36:36 18:40:03 21° 258° (WSW) 18:43:22 437.305
SRMSAT 08 Jul 18:48:28 18:52:18 17° 180° (S) 18:56:07 437.500
Cubesat XI-IV 08 Jul 18:57:24 19:02:44 70° 75° (ENE) 19:08:07 437.490
CUBESAT XI-V 08 Jul 19:15:37 19:19:53 35° 97° (E) 19:24:08 437.345
DANDE 08 Jul 19:31:50 19:34:20 43° 79° (E) 19:36:55 436.750
CUSAT 1 08 Jul 19:37:21 19:39:55 59° 262° (W) 19:42:46 437.405
JUGNU 08 Jul 19:37:50 19:39:46 11° 193° (SSW) 19:41:36 437.505
HO-68 08 Jul 19:42:34 19:46:09 15° 59° (ENE) 19:50:08 435.675
BRITE-PL 08 Jul 19:44:39 19:48:39 23° 71° (ENE) 19:52:37 437.365/2234.400
Cosmos 2504 08 Jul 19:47:05 19:50:12 12° 278° (W) 19:52:41 435.465 / 435.565
CUTE-I 08 Jul 20:02:40 20:07:16 28° 265° (W) 20:11:48 437.470
STRAND 1 08 Jul 20:25:04 20:30:10 61° 101° (ESE) 20:35:13 437.568
GOMX 1 08 Jul 20:33:23 20:38:05 40° 74° (ENE) 20:42:32 467.674
GONETS M04 08 Jul 20:35:11 20:43:46 63° 80° (E) 20:52:22
SRMSAT 08 Jul 20:37:40 20:40:45 14° 189° (S) 20:43:46 437.500
COMPASS 1 08 Jul 20:39:55 20:41:42 13° 68° (ENE) 20:43:41 437.405
PRISM 08 Jul 20:40:23 20:44:36 89° 284° (WNW) 20:48:44 437.425
Cubesat XI-IV 08 Jul 20:41:14 20:43:27 12° 271° (W) 20:45:18 437.490
CUBESAT XI-V 08 Jul 20:53:41 20:57:06 20° 291° (WNW) 21:00:20 437.345
DOVE 4 08 Jul 20:54:41 20:59:08 40° 74° (ENE) 21:03:22 437.250
CUTE 1.7 + AOD 2 08 Jul 21:03:11 21:07:04 39° 74° (ENE) 21:11:03 437.475
CINEMA 3 08 Jul 21:06:36 21:09:57 22° 71° (ENE) 21:13:19 145.822/145.860
CANX-2 08 Jul 21:07:08 21:11:11 49° 75° (ENE) 21:15:17 2200.000
Cosmos 2499 08 Jul 21:21:47 21:28:14 27° 71° (ENE) 21:35:18 435.465 / 435.565
BRITE-PL 08 Jul 21:21:56 21:27:00 39° 262° (W) 21:31:44 437.365/2234.400
CUBEBUG 2 08 Jul 21:24:01 21:26:23 15° 69° (ENE) 21:28:54 437.445
HO-68 08 Jul 21:25:53 21:33:03 89° 84° (E) 21:40:15 435.675
DELFI C3 08 Jul 21:28:21 21:29:20 11° 68° (ENE) 21:30:33 145.870
M-CUBED/EXP-1 PRIME 08 Jul 21:31:24 21:34:29 19° 99° (E) 21:37:48 437.505
FUNcube-1 08 Jul 21:39:54 21:41:45 13° 68° (ENE) 21:43:46 145.935
